User: anonymous   Login
Location: Newark
(48.4472°N, 1.4892°E)
Time: 14:58:41
(UTC+00:00)
Language:

Explorer 11/Cluster Stage 4 - Orbit

View from above orbital plane
View from above orbital plane
View from above satellite
View from above satellite

Ground track
Ground track

The orbit data is extracted from the following two-line orbital elements,

1   107U 61013A   19318.14816041  .00000598  00000-0  58511-4 0  9992
2   107  28.7921 322.9899 0546989 280.4738  73.4672 14.08850918935240
Epoch (UTC): 14 November 2019 03:33:21
Eccentricity: 0.0546989
inclination: 28.7921°
perigee height: 467 km
apogee height: 1259 km
right ascension of ascending node: 322.9899°
argument of perigee: 280.4738°
revolutions per day: 14.08850918
mean anomaly at epoch: 73.4672°
orbit number at epoch: 93524

The dashed part of the orbit path shows where the satellite is in the earth's shadow,  

DLR